Location: �couen
(49.0206°N, 2.3831°E)
Time: 22:37:47
(UTC+00:00)

ATLAS 3B R/B - Pass Details

Date: 22 May 2022
Orbit: 976 x 1218 km, 63.8° (Epoch: 20 June)

Event Time Altitude Azimuth Distance (km) Brightness Sun altitude
Rises 22:15:10 0° 318° (NW) 3,932 7.0 -17.5°
Reaches altitude 10° 22:17:48 10° 320° (NW) 3,005 6.2 -17.7°
Maximum altitude 22:25:02 77° 47° (NE) 1,199 3.0 -18.1°
Enters shadow 22:30:12 22° 131° (SE) 2,328 4.0 -18.4°
